Weather History for Three Rivers, MI

Change the Weather History Date:

Thursday, September 5, 2013

  Actual Average Record
Temperature  
Mean Temperature 64 °F -  
Max Temperature 74 °F 78 °F 95 °F (1954)
Min Temperature 55 °F 53 °F 39 °F (1950)
Growing Degree Days 14 (Base 50)    
Moisture  
Dew Point 47 °F    
Average Humidity 60    
Maximum Humidity 91    
Minimum Humidity 19    
Precipitation  
Precipitation 0.00 in - - ()
Sea Level Pressure  
Sea Level Pressure 30.22 in    
Wind  
Wind Speed 2 mph (NE)    
Max Wind Speed 12 mph    
Max Gust Speed 16 mph    
Visibility 10 miles    
Events      
Averages and records for this station are not official NWS values.
T = Trace of Precipitation, MM = Missing Value Source: NWS Daily Summary

Daily Weather History Graph

Daily Weather History Graph

Search for Another Location

Airport:

Trip Planner

Search our weather history database for the weather conditions in past years. The results will help you decide how hot, cold, wet, or windy it might be!

Date:

Astronomy

Sep. 05, 2013 Rise Set
Actual Time 7:12 AM EDT 8:08 PM EDT
Civil Twilight 6:43 AM EDT 8:37 PM EDT
Nautical Twilight 6:10 AM EDT 9:10 PM EDT
Astronomical Twilight 5:34 AM EDT 9:46 PM EDT
Moon 7:24 AM EDT (9/5) 7:58 PM EDT (9/5)
Length of Visible Light 13h 53m
Length of Day
12h 56m
New Moon, 0% of the Moon is Illuminated
Sep 5
New Moon
Sep 12
First Quarter
Sep 19
Full
Sep 26
Last Quarter
Oct 4
New

Hourly Weather History & Observations

Time (EDT) Temp. Dew Point Humidity Pressure Visibility Wind Dir Wind Speed Gust Speed Precip Events Conditions
12:15 AM 60.6 °F 57.2 °F 88% 30.14 in 10.0 mi Calm Calm - N/A   Clear
12:34 AM 59.9 °F 56.8 °F 90% 30.14 in 10.0 mi Calm Calm - N/A   Clear
12:54 AM 60.8 °F 56.8 °F 87% 30.14 in 10.0 mi Calm Calm - N/A   Clear
1:15 AM 59.9 °F 56.3 °F 88% 30.13 in 10.0 mi Calm Calm - N/A   Scattered Clouds
1:34 AM 59.5 °F 56.3 °F 89% 30.13 in 10.0 mi Calm Calm - N/A   Scattered Clouds
1:55 AM 59.4 °F 56.5 °F 90% 30.14 in 10.0 mi Calm Calm - N/A   Scattered Clouds
2:14 AM 59.4 °F 56.3 °F 90% 30.14 in 10.0 mi Calm Calm - N/A   Scattered Clouds
2:34 AM 59.5 °F 56.5 °F 90% 30.14 in 10.0 mi Calm Calm - N/A   Scattered Clouds
2:55 AM 59.2 °F 56.5 °F 91% 30.14 in 10.0 mi Calm Calm - N/A   Scattered Clouds
3:14 AM 59.2 °F 56.5 °F 91% 30.14 in 10.0 mi Calm Calm - N/A   Mostly Cloudy
3:34 AM 59.2 °F 56.3 °F 90% 30.15 in 10.0 mi Calm Calm - N/A   Mostly Cloudy
3:55 AM 58.8 °F 55.9 °F 90% 30.16 in 10.0 mi Calm Calm - N/A   Scattered Clouds
4:14 AM 59.2 °F 56.7 °F 91% 30.16 in 10.0 mi Calm Calm - N/A   Mostly Cloudy
4:34 AM 59.5 °F 57.0 °F 91% 30.17 in 10.0 mi Calm Calm - N/A   Overcast
4:55 AM 60.1 °F 57.6 °F 91% 30.17 in 10.0 mi Calm Calm - N/A   Mostly Cloudy
5:14 AM 60.1 °F 57.2 °F 90% 30.17 in 10.0 mi Calm Calm - N/A   Mostly Cloudy
5:34 AM 60.6 °F 57.6 °F 90% 30.18 in 10.0 mi Calm Calm - N/A   Mostly Cloudy
5:55 AM 59.9 °F 57.2 °F 91% 30.18 in 10.0 mi Calm Calm - N/A   Overcast
6:14 AM 61.2 °F 58.5 °F 91% 30.19 in 10.0 mi Calm Calm - N/A   Overcast
6:35 AM 61.2 °F 58.1 °F 90% 30.20 in 10.0 mi ENE 3.5 mph - N/A   Overcast
6:54 AM 61.3 °F 58.3 °F 90% 30.21 in 10.0 mi NE 3.5 mph - N/A   Overcast
7:15 AM 61.0 °F 47.7 °F 62% 30.22 in 10.0 mi NE 9.2 mph - N/A   Overcast
7:35 AM 59.2 °F 48.9 °F 69% 30.23 in 10.0 mi ENE 5.8 mph - N/A   Mostly Cloudy
7:54 AM 58.6 °F 49.6 °F 72% 30.24 in 10.0 mi NE 5.8 mph - N/A   Mostly Cloudy
8:15 AM 59.9 °F 50.0 °F 70% 30.23 in 10.0 mi NE 5.8 mph - N/A   Scattered Clouds
8:34 AM 60.3 °F 50.0 °F 69% 30.24 in 10.0 mi NE 6.9 mph - N/A   Clear
8:54 AM 60.6 °F 49.5 °F 67% 30.25 in 10.0 mi NE 8.1 mph - N/A   Clear
9:15 AM 60.8 °F 49.6 °F 67% 30.25 in 10.0 mi ENE 10.4 mph 16.1 mph N/A   Scattered Clouds
9:34 AM 60.3 °F 49.8 °F 68% 30.26 in 10.0 mi ENE 9.2 mph - N/A   Mostly Cloudy
9:54 AM 62.1 °F 50.9 °F 67% 30.26 in 10.0 mi ENE 8.1 mph - N/A   Overcast
10:15 AM 62.6 °F 48.4 °F 60% 30.26 in 10.0 mi ENE 8.1 mph - N/A   Mostly Cloudy
10:34 AM 64.0 °F 49.1 °F 58% 30.26 in 10.0 mi ENE 4.6 mph - N/A   Scattered Clouds
10:54 AM 65.7 °F 48.6 °F 54% 30.27 in 10.0 mi NNE 3.5 mph - N/A   Clear
11:15 AM 67.6 °F 47.8 °F 49% 30.27 in 10.0 mi NNE 3.5 mph - N/A   Scattered Clouds
11:34 AM 68.0 °F 46.8 °F 47% 30.27 in 10.0 mi North 8.1 mph - N/A   Mostly Cloudy
11:54 AM 68.5 °F 47.1 °F 46% 30.27 in 10.0 mi NNE 8.1 mph - N/A   Scattered Clouds
12:15 PM 69.6 °F 47.1 °F 45% 30.27 in 10.0 mi NNE 4.6 mph - N/A   Clear
12:34 PM 71.6 °F 46.2 °F 40% 30.26 in 10.0 mi North 4.6 mph - N/A   Clear
12:55 PM 71.1 °F 39.7 °F 32% 30.26 in 10.0 mi North 4.6 mph - N/A   Clear
1:15 PM 71.4 °F 34.7 °F 26% 30.26 in 10.0 mi NE 8.1 mph - N/A   Clear
1:34 PM 73.0 °F 35.2 °F 25% 30.26 in 10.0 mi NE 9.2 mph - N/A   Clear
1:55 PM 73.4 °F 32.9 °F 23% 30.26 in 10.0 mi ENE 5.8 mph - N/A   Clear
2:14 PM 73.6 °F 29.1 °F 19% 30.26 in 10.0 mi NE 4.6 mph - N/A   Clear
2:35 PM 74.1 °F 30.6 °F 20% 30.25 in 10.0 mi NE 11.5 mph - N/A   Clear
2:55 PM 73.8 °F 34.5 °F 24% 30.25 in 10.0 mi ENE 8.1 mph - N/A   Clear
3:14 PM 73.9 °F 35.6 °F 25% 30.24 in 10.0 mi NNE 6.9 mph - N/A   Clear
3:35 PM 74.3 °F 35.8 °F 25% 30.24 in 10.0 mi North 6.9 mph - N/A   Clear
3:54 PM 74.1 °F 35.2 °F 24% 30.24 in 10.0 mi NE 5.8 mph - N/A   Clear
4:14 PM 74.1 °F 37.0 °F 26% 30.24 in 10.0 mi North 5.8 mph - N/A   Clear
4:35 PM 73.4 °F 36.9 °F 26% 30.24 in 10.0 mi ENE 6.9 mph - N/A   Clear
4:54 PM 73.6 °F 37.6 °F 27% 30.24 in 10.0 mi NE 5.8 mph - N/A   Clear
5:14 PM 73.2 °F 37.2 °F 27% 30.24 in 10.0 mi NNE 5.8 mph - N/A   Clear
5:35 PM 73.4 °F 36.7 °F 26% 30.24 in 10.0 mi NE 4.6 mph - N/A   Clear
5:54 PM 73.4 °F 37.4 °F 27% 30.24 in 10.0 mi ENE 4.6 mph - N/A   Clear
6:15 PM 72.7 °F 38.3 °F 29% 30.23 in 10.0 mi NNE 4.6 mph - N/A   Clear
6:35 PM 72.7 °F 38.1 °F 28% 30.24 in 10.0 mi NE 5.8 mph - N/A   Clear
6:54 PM 72.0 °F 39.6 °F 31% 30.24 in 10.0 mi Calm Calm - N/A   Clear
7:15 PM 70.7 °F 41.2 °F 34% 30.23 in 10.0 mi Calm Calm - N/A   Clear
7:34 PM 69.4 °F 42.6 °F 38% 30.23 in 10.0 mi NE 3.5 mph - N/A   Clear
7:55 PM 66.7 °F 45.7 °F 47% 30.23 in 10.0 mi Calm Calm - N/A   Clear
8:14 PM 65.5 °F 46.2 °F 50% 30.23 in 10.0 mi ENE 3.5 mph - N/A   Clear
8:34 PM 63.0 °F 47.7 °F 57% 30.23 in 10.0 mi ENE 4.6 mph - N/A   Clear
8:55 PM 61.9 °F 48.0 °F 60% 30.24 in 10.0 mi Calm Calm - N/A   Clear
9:14 PM 61.0 °F 48.2 °F 63% 30.24 in 10.0 mi Calm Calm - N/A   Clear
9:34 PM 59.4 °F 47.3 °F 64% 30.25 in 10.0 mi NE 3.5 mph - N/A   Clear
9:55 PM 58.5 °F 47.8 °F 68% 30.25 in 10.0 mi Calm Calm - N/A   Clear
10:14 PM 58.1 °F 47.5 °F 68% 30.25 in 10.0 mi Calm Calm - N/A   Clear
10:35 PM 57.0 °F 48.2 °F 72% 30.25 in 10.0 mi Calm Calm - N/A   Clear
10:55 PM 57.2 °F 47.8 °F 71% 30.25 in 10.0 mi Calm Calm - N/A   Clear
11:14 PM 56.1 °F 47.8 °F 74% 30.25 in 10.0 mi Calm Calm - N/A   Clear
11:35 PM 55.2 °F 47.7 °F 76% 30.26 in 10.0 mi Calm Calm - N/A   Clear
11:54 PM 55.6 °F 47.5 °F 74% 30.26 in 10.0 mi Calm Calm - N/A   Clear